[[{"header":{"parameterUnit":"m.s-1","parameterCategory":1,"la1":30.2991,"la2":30.254,"lo1":-89.0895,"lo2":-89.0444,"dy":0.0017,"dx":0.0017,"nx":28,"ny":28,"refTime":"2025-02-09T09:00:00:Z","depth":0,"parameterNumber":2,"parameterNumberName":"U-component_of_WINDS"},"data":[0,0,0,0,0,0,0,0,0,0,0,0,0,0,0,0,0,0,0,0,0,0,0,0,0,0,0,0,0,0,0,0,0,0,0,0,0,0,0,0,0,0,0,0,0,0,0,0,0,0,0,0,0,0,0,0,0,0,-2.0717,-2.0717,0,-2.0701,-2.07,-2.07,-2.0652,-2.0651,-2.065,-2.0649,-2.0632,-2.0633,-2.0633,0,0,0,0,0,0,0,0,0,0,0,0,0,-2.0707,-2.0708,-2.0717,-2.0717,-2.0716,-2.0701,-2.07,-2.07,-2.0652,-2.0651,-2.0649,-2.0648,-2.0632,-2.0633,-2.0634,0,0,0,0,0,0,0,0,0,0,0,0,0,-2.0703,-2.0708,-2.0717,-2.069,-2.0688,-2.0701,-2.07,-2.07,-2.0652,-2.0651,-2.0649,-2.0648,-2.0632,-2.0633,-2.0634,-2.0671,0,0,-2.0636,-2.0637,0,0,0,0,0,0,0,0,-2.0704,-2.0704,-2.0695,-2.0692,-2.0689,-2.0677,-2.0691,-2.069,-2.0653,-2.0666,-2.0649,-2.0647,-2.0648,-2.0648,-2.0648,-2.067,-2.0669,-2.0636,-2.0637,-2.0637,-2.0637,0,0,0,0,0,0,0,-2.0704,-2.0704,-2.071,-2.0694,-2.0691,-2.068,-2.0678,-2.0691,-2.0666,-2.0665,-2.0661,-2.066,-2.0647,-2.0648,-2.0648,-2.0669,-2.0636,-2.0637,-2.0637,-2.0638,-2.0721,-2.0723,0,0,0,0,0,0,-2.0708,-2.0705,-2.0711,-2.071,-2.0693,-2.0681,-2.0679,-2.0682,-2.0666,-2.0662,-2.0661,-2.0658,-2.0647,-2.0647,-2.0647,-2.0689,-2.0637,-2.0638,-2.0638,-2.072,-2.0722,-2.0723,0,0,0,0,0,0,-2.0708,-2.0709,-2.0712,-2.0706,-2.0706,-2.0683,-2.0688,-2.0683,-2.0684,-2.0663,-2.0659,-2.0666,-2.0646,-2.0646,-2.0665,-2.0688,-2.0638,-2.0639,-2.0718,-2.072,-2.0723,-2.0774,0,0,0,0,0,0,-2.0708,-2.0709,-2.0723,-2.0707,-2.0706,-2.073,-2.0689,-2.0684,-2.0685,-2.068,-2.0667,-2.0663,-2.0644,-2.0664,-2.0666,-2.0688,-2.064,-2.0715,-2.0719,-2.0722,-2.0771,-2.0778,-2.0785,0,0,0,0,0,-2.0708,-2.0738,-2.0724,-2.0725,-2.0723,-2.0731,-2.0731,-2.0708,-2.0687,-2.0701,-2.0688,-2.0664,-2.0686,-2.0667,-2.0668,-2.0691,-2.0714,-2.0718,-2.0721,-2.0767,-2.0777,-2.0785,0,0,0,0,0,0,-2.0756,-2.0735,-2.0719,-2.0745,-2.074,-2.0723,-2.0739,-2.0719,-2.0721,-2.0716,-2.0688,-2.0686,-2.0709,-2.0702,-2.0682,-2.0727,-2.0696,-2.07,-2.073,-2.0739,-2.0746,-2.0747,-2.064,0,0,0,0,0,-2.077,-2.0779,-2.076,-2.0785,-2.0783,-2.0762,-2.0765,-2.0748,-2.0742,-2.074,-2.0729,-2.0724,-2.073,-2.0734,-2.0738,-2.077,-2.0766,-2.0786,-2.0794,-2.08,-2.0804,-2.082,-2.0829,-2.0736,-2.0736,-2.0736,0,0,-2.0798,-2.0788,-2.0795,-2.0794,-2.0789,-2.0799,-2.0761,-2.0773,-2.078,-2.0742,-2.0759,-2.0752,-2.0745,-2.0771,-2.0781,-2.0765,-2.0829,-2.0805,-2.081,-2.081,-2.0825,-2.0834,-2.0842,-2.0739,-2.0738,-2.0738,0,0,-2.0855,-2.0848,-2.0868,-2.0864,-2.0856,-2.0842,-2.0847,-2.0833,-2.0826,-2.0844,-2.0816,-2.0824,-2.0835,-2.0831,-2.0831,-2.0888,-2.0866,-2.0891,-2.0928,-2.0945,-2.0952,-2.0959,-2.0979,-2.0986,-2.0895,-2.0895,-2.0895,0,-2.0891,-2.0905,-2.0881,-2.0895,-2.0896,-2.0863,-2.0883,-2.088,-2.0874,-2.0875,-2.0858,-2.0871,-2.0864,-2.0889,-2.0903,-2.0904,-2.0909,-2.0891,-2.0953,-2.0959,-2.0965,-2.0984,-2.0992,-2.0898,-2.0898,-2.0897,-2.0897,0,-2.095,-2.096,-2.0977,-2.0972,-2.0975,-2.0992,-2.0972,-2.0977,-2.0961,-2.0949,-2.0968,-2.0959,-2.0961,-2.0966,-2.095,-2.0989,-2.0979,-2.0958,-2.0926,-2.0977,-2.0994,-2.1001,-2.0902,-2.0901,-2.09,-2.0899,0,0,-2.1034,-2.1018,-2.1024,-2.1022,-2.1012,-2.1019,-2.1036,-2.1038,-2.1044,-2.1042,-2.1054,-2.1065,-2.1046,-2.1045,-2.1029,-2.1044,-2.109,-2.102,-2.102,-2.1033,-2.1132,-2.1148,-2.1156,-2.1076,-2.1077,-2.1078,-2.1133,0,-2.1087,-2.1114,-2.1094,-2.1123,-2.1133,-2.1103,-2.1117,-2.1113,-2.1103,-2.1109,-2.1098,-2.1106,-2.108,-2.108,-2.1093,-2.1081,-2.1109,-2.1077,-2.1087,-2.1088,-2.1089,-2.1166,-2.1181,-2.1233,-2.1139,-2.1141,-2.1141,0,-2.1152,-2.1153,-2.1184,-2.1173,-2.1176,-2.1189,-2.119,-2.1197,-2.1192,-2.1184,-2.1185,-2.1165,-2.1181,-2.1151,-2.1172,-2.1151,-2.1155,-2.115,-2.1151,-2.115,-2.1117,-2.1166,-2.1249,-2.1257,-2.1152,-2.1151,-2.115,0,-2.121,-2.122,-2.124,-2.1239,-2.1226,-2.1237,-2.1232,-2.1225,-2.1228,-2.123,-2.1231,-2.1235,-2.1236,-2.124,-2.1221,-2.1201,-2.1245,-2.1214,-2.1239,-2.1239,-2.1248,-2.1248,-2.1332,-2.1252,-2.1252,-2.1252,-2.1252,0,-2.1271,-2.1291,-2.1266,-2.1278,-2.13,-2.1277,-2.13,-2.1292,-2.1287,-2.1297,-2.1272,-2.1282,-2.1258,-2.1266,-2.1253,-2.1273,-2.1274,-2.1268,-2.1263,-2.1269,-2.127,-2.127,-2.1266,-2.1254,-2.1254,-2.1253,-2.1253,0,-2.1339,-2.1323,-2.1342,-2.133,-2.1327,-2.1344,-2.1333,-2.1344,-2.1333,-2.1347,-2.1349,-2.1331,-2.134,-2.1322,-2.1329,-2.1319,-2.1347,-2.1338,-2.1349,-2.1346,-2.1372,-2.1369,-2.1458,-2.1469,-2.1383,-2.1384,-2.1385,0,-2.1378,-2.1393,-2.1382,-2.1388,-2.1384,-2.1393,-2.1396,-2.1376,-2.138,-2.1376,-2.1388,-2.1395,-2.1398,-2.1414,-2.1402,-2.1406,-2.1396,-2.1428,-2.1397,-2.1403,-2.1396,-2.1395,-2.1396,-2.1433,-2.1434,-2.1435,-2.1436,0,-2.1449,-2.1441,-2.1446,-2.145,-2.1454,-2.1456,-2.1455,-2.1461,-2.1439,-2.1446,-2.1454,-2.1457,-2.1464,-2.1471,-2.1473,-2.1469,-2.1449,-2.1446,-2.1452,-2.1457,-2.1463,-2.146,-2.1365,-2.1444,-2.1443,-2.1442,-2.1442,-2.1442,-2.1504,-2.1516,-2.151,-2.1517,-2.1515,-2.1516,-2.1526,-2.1516,-2.1523,-2.1527,-2.1514,-2.1526,-2.1522,-2.1523,-2.1521,-2.153,-2.1516,-2.1525,-2.1527,-2.1529,-2.1533,-2.1463,-2.153,-2.153,-2.153,-2.153,-2.153,0,-2.1573,-2.1568,-2.1575,-2.1576,-2.1582,-2.1564,-2.1563,-2.1569,-2.1579,-2.1577,-2.1582,-2.1592,-2.1599,-2.1589,-2.1594,-2.1603,-2.1594,-2.1605,-2.1604,-2.1603,-2.1545,-2.1539,-2.1612,-2.1612,-2.1612,-2.1612,-2.1612,-2.1612,-2.161,-2.1629,-2.162,-2.1639,-2.1634,-2.1645,-2.1646,-2.1647,-2.1645,-2.1658,-2.1663,-2.1657,-2.1651,-2.1656,-2.1662,-2.1659,-2.1662,-2.1676,-2.1669,-2.1615,-2.1607,-2.1599,-2.1593,-2.1677,-2.1677,-2.1726,-2.1727,-2.1727]},{"header":{"parameterUnit":"m.s-1","parameterCategory":1,"la1":30.2991,"la2":30.254,"lo1":-89.0895,"lo2":-89.0444,"dy":0.0017,"dx":0.0017,"nx":28,"ny":28,"refTime":"2025-02-09T09:00:00:Z","depth":0,"parameterNumber":3,"parameterNumberName":"V-component_of_WINDS"},"data":[0,0,0,0,0,0,0,0,0,0,0,0,0,0,0,0,0,0,0,0,0,0,0,0,0,0,0,0,0,0,0,0,0,0,0,0,0,0,0,0,0,0,0,0,0,0,0,0,0,0,0,0,0,0,0,0,0,0,0.5632,0.5632,0,0.5704,0.5704,0.5705,0.5737,0.5737,0.5737,0.5736,0.5809,0.5811,0.5813,0,0,0,0,0,0,0,0,0,0,0,0,0,0.5521,0.5523,0.5631,0.5632,0.5633,0.5703,0.5704,0.5705,0.5737,0.5737,0.5737,0.5736,0.5809,0.5811,0.5814,0,0,0,0,0,0,0,0,0,0,0,0,0,0.5579,0.5524,0.5631,0.5657,0.566,0.5703,0.5704,0.5706,0.5737,0.5737,0.5737,0.5736,0.5808,0.5811,0.5814,0.5836,0,0,0.5823,0.5825,0,0,0,0,0,0,0,0,0.5575,0.5583,0.5653,0.5656,0.5659,0.5711,0.5692,0.5749,0.5737,0.5708,0.5736,0.5736,0.5777,0.5782,0.5796,0.5839,0.5842,0.5824,0.5825,0.5827,0.5828,0,0,0,0,0,0,0,0.5571,0.558,0.566,0.5654,0.5658,0.5666,0.5674,0.5703,0.5742,0.571,0.5713,0.5721,0.5779,0.5793,0.5798,0.5844,0.5824,0.5826,0.5828,0.5829,0.5909,0.591,0,0,0,0,0,0,0.5563,0.5576,0.5658,0.5662,0.5616,0.5668,0.5677,0.5695,0.5742,0.5749,0.5721,0.5722,0.5788,0.5795,0.5801,0.583,0.5827,0.583,0.5831,0.5909,0.5909,0.591,0,0,0,0,0,0,0.5561,0.557,0.5655,0.562,0.5631,0.567,0.569,0.5696,0.5711,0.575,0.5757,0.5729,0.5788,0.5797,0.5827,0.5833,0.5831,0.5834,0.5909,0.5909,0.591,0.5889,0,0,0,0,0,0,0.5557,0.5569,0.5578,0.562,0.5633,0.568,0.569,0.5698,0.5716,0.5718,0.5759,0.5766,0.5789,0.5823,0.583,0.5837,0.5836,0.5908,0.5909,0.5909,0.5889,0.5888,0.5888,0,0,0,0,0,0.5553,0.5569,0.5578,0.5588,0.5645,0.568,0.5688,0.5714,0.5716,0.5726,0.5751,0.5765,0.5831,0.5825,0.5834,0.5842,0.5908,0.5909,0.5909,0.5889,0.5889,0.5888,0,0,0,0,0,0,0.5525,0.5575,0.5585,0.5615,0.5643,0.5685,0.5698,0.5712,0.574,0.5741,0.5772,0.5781,0.5809,0.5829,0.5821,0.5867,0.5871,0.5873,0.5853,0.5852,0.5852,0.5846,0.5839,0,0,0,0,0,0.5523,0.5548,0.5589,0.5611,0.5625,0.5659,0.5675,0.5693,0.5723,0.5735,0.5763,0.5792,0.582,0.5837,0.5865,0.5892,0.5902,0.5902,0.5902,0.5901,0.5903,0.592,0.592,0.5912,0.5912,0.5912,0,0,0.5517,0.5547,0.5561,0.5606,0.563,0.5655,0.5668,0.5694,0.5713,0.5739,0.577,0.5791,0.5826,0.5855,0.587,0.5873,0.5907,0.5902,0.5901,0.5903,0.592,0.5921,0.5922,0.5912,0.5912,0.5912,0,0,0.552,0.5545,0.5567,0.5591,0.5627,0.565,0.5655,0.5696,0.5711,0.5743,0.5763,0.5786,0.5833,0.5857,0.5875,0.5888,0.5902,0.5896,0.5893,0.5909,0.591,0.591,0.5915,0.5917,0.5898,0.5898,0.5898,0,0.5509,0.5548,0.5576,0.5601,0.562,0.5646,0.5668,0.569,0.5733,0.5746,0.5749,0.5809,0.5834,0.587,0.5873,0.5887,0.5894,0.5891,0.5907,0.5908,0.5909,0.5915,0.5916,0.5897,0.5897,0.5897,0.5897,0,0.5532,0.5559,0.5571,0.5613,0.5634,0.5658,0.569,0.5708,0.5724,0.5746,0.5779,0.581,0.5844,0.5854,0.587,0.5892,0.5893,0.5901,0.5906,0.5909,0.5914,0.5916,0.5896,0.5896,0.5896,0.5896,0,0,0.5519,0.5577,0.5581,0.5601,0.5643,0.5664,0.5689,0.5724,0.5739,0.5768,0.579,0.5829,0.5837,0.5858,0.5877,0.5891,0.59,0.5898,0.5899,0.5897,0.5927,0.5921,0.5923,0.591,0.591,0.5911,0.5925,0,0.5528,0.5573,0.56,0.5635,0.566,0.5685,0.5707,0.5735,0.5757,0.5782,0.5806,0.5834,0.5842,0.5855,0.587,0.5896,0.5907,0.5895,0.593,0.5931,0.5921,0.5925,0.5919,0.593,0.5927,0.5927,0.5927,0,0.5544,0.5573,0.5611,0.5651,0.5663,0.5682,0.5716,0.5739,0.5773,0.5788,0.5811,0.583,0.5858,0.5861,0.5899,0.5891,0.5907,0.5922,0.5923,0.5927,0.5929,0.593,0.5934,0.5936,0.5931,0.5931,0.593,0,0.5531,0.558,0.5609,0.5625,0.5673,0.5686,0.5706,0.5739,0.5759,0.5788,0.5801,0.5834,0.5851,0.5876,0.5904,0.5903,0.5939,0.5944,0.5953,0.5952,0.5959,0.5958,0.5966,0.5969,0.5969,0.5969,0.5969,0,0.5538,0.556,0.5604,0.5621,0.5647,0.5677,0.5702,0.5725,0.5754,0.5777,0.58,0.5821,0.5856,0.5881,0.5903,0.5932,0.594,0.5952,0.5958,0.595,0.5949,0.5961,0.5961,0.5969,0.5969,0.5969,0.5969,0,0.5527,0.5557,0.5591,0.5634,0.5645,0.5662,0.5699,0.5718,0.5741,0.577,0.5778,0.5815,0.5846,0.5876,0.5917,0.5932,0.596,0.5968,0.5949,0.5952,0.5959,0.5958,0.5975,0.5979,0.5979,0.5979,0.5979,0,0.553,0.5547,0.5593,0.561,0.563,0.5657,0.5677,0.5708,0.5728,0.5768,0.5781,0.5814,0.5842,0.5891,0.5921,0.5953,0.5961,0.5965,0.5966,0.5958,0.5962,0.596,0.5962,0.5964,0.5964,0.5964,0.5964,0,0.5531,0.5545,0.5573,0.5607,0.563,0.5658,0.5687,0.5699,0.5736,0.5757,0.5789,0.5811,0.5854,0.5886,0.5922,0.5943,0.596,0.5963,0.5967,0.5959,0.5948,0.5955,0.5947,0.5963,0.5963,0.5963,0.5963,0.5963,0.5527,0.5544,0.5579,0.561,0.5635,0.5661,0.5681,0.5707,0.5735,0.5772,0.5789,0.5822,0.5855,0.5905,0.5926,0.5952,0.5956,0.5961,0.5963,0.5963,0.5962,0.5944,0.5959,0.5959,0.5959,0.5959,0.5959,0,0.553,0.5554,0.5582,0.5621,0.5646,0.566,0.5692,0.5712,0.574,0.577,0.5798,0.5835,0.5867,0.59,0.5934,0.5948,0.5957,0.5956,0.5955,0.596,0.5956,0.595,0.5949,0.5949,0.5949,0.5949,0.5949,0.5949,0.5534,0.5564,0.5583,0.5625,0.5649,0.5682,0.5699,0.5724,0.5748,0.5789,0.5816,0.5838,0.5869,0.5906,0.5936,0.5945,0.5956,0.5953,0.5964,0.596,0.596,0.5961,0.5955,0.5955,0.5955,0.5966,0.5966,0.5966]}]]